Wind_Speed
25 26 23 23 23 20 17 19 26 20 16 15 26 24 21 19 16 14 11 9 8 7 7 5 3 1 3 4 1 3 4 6 9 5 7 7 8 5 12 5 1 5 4 5
22 21 20 18 17 15 14 18 18 12 9 18 22 21 17 15 11 7 6 5 5 5 3 1 1 2 1 1 1 3 5 4 8 2 2 3 5 6 10 13 7 6 2 4
25 19 16 16 15 15 15 15 13 13 10 13 13 13 10 9 7 6 5 5 4 1 3 3 3 4 3 2 2 5 8 8 9 9 10 14 16 11 9 9 6 6 9 6
20 21 16 11 10 11 13 12 12 9 8 9 6 6 8 6 4 3 3 2 2 3 4 4 5 5 6 6 5 7 8 11 14 16 20 22 23 17 12 13 10 8 7 9
22 17 17 14 8 6 8 9 8 7 6 5 5 5 4 2 2 1 2 2 4 6 6 7 8 6 7 7 7 9 12 11 19 24 16 14 21 22 19 17 15 13 11 10
22 20 15 14 12 6 2 2 4 4 2 3 3 3 4 4 4 2 3 4 6 7 8 9 11 11 12 13 14 13 12 11 16 9 13 20 21 10 16 19 17 14 15 9
22 20 19 13 11 11 6 5 4 3 3 3 3 4 5 7 9 8 9 9 9 9 11 13 15 16 17 19 17 17 16 15 12 14 16 3 3 6 7 12 17 18 16 12
21 21 18 17 13 10 10 7 9 10 11 9 9 8 8 8 9 10 11 13 14 16 16 17 14 13 11 8 9 12 15 15 9 6 11 23 13 7 14 14 13 14 15 14
22 18 18 18 16 13 11 10 9 10 12 14 14 14 13 13 13 14 14 14 15 15 17 15 6 5 13 5 8 10 11 14 14 9 4 5 7 8 8 11 13 6 6 10
23 20 16 17 18 15 14 13 13 12 13 12 13 16 18 18 17 17 16 18 18 18 16 15 11 8 13 8 8 9 10 12 20 22 11 13 17 14 12 6 5 10 9 9
26 20 18 16 17 20 17 16 15 17 17 15 17 16 16 19 21 20 18 17 17 15 15 11 10 9 10 11 14 13 12 9 10 8 8 9 5 7 7 13 17 19 22 21
27 23 18 17 16 17 22 19 18 17 18 18 19 19 19 19 17 21 24 23 17 9 9 7 7 11 16 20 21 23 15 14 10 11 10 19 28 35 35 31 25 24 19 19
26 23 22 19 17 15 17 22 21 22 20 18 19 19 17 16 18 20 22 22 22 23 22 23 22 24 22 24 23 22 25 25 31 33 37 35 28 29 26 28 34 31 30 28
22 23 24 23 19 17 16 19 22 22 24 22 13 17 20 19 18 17 18 21 23 24 24 25 27 31 23 26 30 38 35 37 38 41 32 30 25 24 20 24 26 29 30 28
24 22 24 24 24 20 19 19 21 23 22 25 25 21 22 26 27 27 25 23 23 25 26 28 30 30 34 37 36 37 30 27 24 35 24 26 30 22 21 23 23 22 24 24
24 26 24 24 25 24 22 23 20 17 23 27 28 23 24 21 19 19 20 21 24 26 28 29 31 31 29 21 31 34 31 30 26 23 24 26 26 25 29 28 22 24 22 20
26 30 26 25 24 25 24 24 25 23 25 27 20 18 9 9 11 15 17 19 21 23 27 31 31 32 33 40 44 21 19 16 16 20 22 23 20 21 23 29 30 30 25 23
30 27 27 28 30 25 25 26 26 26 24 27 14 15 16 16 16 16 17 17 19 24 28 31 31 32 32 29 12 16 17 17 15 19 24 26 25 24 27 25 25 25 26 24
31 30 28 29 30 32 28 27 29 28 27 21 26 27 23 12 12 13 16 17 20 25 27 27 20 25 20 19 19 15 15 18 21 22 23 24 22 22 22 18 20 17 16 17
32 31 30 33 34 32 30 27 29 32 34 38 41 38 35 29 23 15 12 11 10 11 14 14 17 25 12 13 11 13 15 17 18 18 20 23 20 18 14 12 7 5 8 12
36 35 34 34 33 34 33 20 14 14 20 26 32 27 28 27 25 19 10 8 8 7 7 8 8 14 9 11 10 11 13 14 16 19 19 17 14 11 9 8 6 8 13 13
40 37 36 37 35 32 19 14 12 16 16 22 25 22 19 21 21 15 9 11 7 7 9 8 8 10 8 11 12 12 14 17 19 19 18 16 12 9 11 12 14 18 12 12
46 42 40 26 22 23 18 20 17 15 24 28 23 17 17 17 17 13 9 8 9 8 9 9 14 8 9 11 13 16 20 23 24 22 19 17 12 11 12 14 13 13 14 14
43 40 29 22 18 20 39 38 35 31 26 20 17 15 17 21 15 12 8 10 9 8 10 16 12 9 11 12 15 18 21 21 21 16 14 15 14 13 12 13 14 14 15 16
49 39 23 36 50 51 32 20 18 23 30 26 21 20 22 19 14 11 12 9 10 12 12 6 10 12 13 15 17 19 19 19 17 17 15 15 16 17 17 17 17 18 18 18
57 42 41 59 53 42 35 33 30 30 28 28 28 23 15 18 12 15 17 13 14 18 14 13 13 14 17 19 20 21 20 20 22 20 19 19 19 20 20 20 20 21 21 21
47 45 61 68 60 43 24 29 30 32 32 32 25 19 21 14 16 23 24 41 34 21 18 15 16 15 18 21 23 24 24 24 23 23 23 22 21 22 23 23 23 22 22 23
Wind_Direction
46 42 43 46 48 59 69 73 83 89 89 102 92 96 99 98 92 95 89 88 95 95 88 70 62 11 283 311 340 256 290 269 292 273 278 301 310 324 356 336 243 272 257 298
30 50 47 51 55 55 63 65 66 63 75 91 101 103 102 99 98 89 87 103 103 110 94 79 269 293 308 262 243 312 335 300 314 316 279 296 302 302 335 330 286 253 209 299
26 27 45 51 51 63 57 56 59 62 72 89 97 104 101 105 98 96 107 135 154 207 294 276 284 281 297 316 312 310 309 284 275 254 291 295 293 292 304 315 266 288 269 286
21 20 21 31 59 52 46 46 52 68 78 81 74 85 106 98 93 107 130 165 241 248 293 279 272 279 284 278 289 303 297 289 294 298 302 288 281 278 274 276 281 250 276 267
7 13 15 12 9 43 62 66 58 59 54 67 88 99 105 61 33 293 302 267 263 277 273 279 277 285 285 277 289 293 294 287 306 309 310 297 282 278 269 261 256 259 261 263
10 0 1 4 1 337 346 92 110 75 47 8 353 332 324 315 322 287 286 290 287 290 290 286 284 286 286 285 288 290 289 297 312 291 308 301 288 306 256 248 255 256 255 267
354 5 354 351 348 351 318 272 257 228 220 239 257 279 306 308 308 311 306 303 301 299 302 297 294 291 287 283 281 277 280 296 303 293 323 336 294 301 261 260 273 264 266 265
347 349 356 347 341 329 334 306 269 267 262 246 243 250 257 267 277 285 288 293 300 303 307 317 325 314 308 314 298 279 269 279 293 280 303 294 303 325 263 275 291 271 271 263
343 341 341 346 339 330 309 306 303 281 272 268 264 257 256 257 261 268 274 277 281 287 293 299 277 281 299 288 305 298 278 262 260 282 287 269 304 324 305 300 313 333 262 250
338 333 333 332 333 330 318 299 288 285 290 284 276 272 266 264 261 261 269 273 274 280 282 282 278 266 268 261 247 253 263 267 258 261 258 273 277 294 292 285 309 331 331 312
330 326 324 324 326 324 323 314 298 282 276 277 279 279 281 272 264 266 266 275 273 270 266 265 262 262 261 263 263 277 278 277 262 232 221 273 322 316 293 305 297 302 302 301
323 320 316 318 321 322 319 319 312 299 284 274 273 280 283 276 271 270 264 254 255 258 263 262 272 268 270 277 278 280 273 264 274 250 262 285 293 294 293 292 291 291 295 297
316 317 315 309 312 316 316 314 314 311 303 296 277 271 269 271 272 273 267 259 259 262 266 272 275 273 275 278 284 285 279 279 272 278 282 288 279 286 283 287 289 284 283 287
306 312 314 309 306 308 312 310 309 310 309 304 309 284 273 268 267 266 270 268 264 264 268 268 268 272 279 277 286 287 286 287 288 287 299 300 290 289 287 281 279 278 275 274
297 304 308 310 305 303 304 306 306 307 302 299 305 299 285 271 265 266 268 269 269 269 268 267 271 277 278 283 285 282 297 301 287 296 303 284 286 274 269 268 279 281 272 272
293 296 298 303 304 300 302 304 304 308 306 306 310 304 297 276 267 260 258 262 267 265 268 271 272 275 276 274 278 302 305 307 304 305 306 303 303 274 265 267 264 284 288 276
286 293 291 295 294 296 297 294 297 300 303 303 307 305 304 290 283 268 264 265 262 264 268 267 273 277 275 273 278 314 288 282 292 301 305 312 306 305 265 265 269 273 269 272
281 287 293 294 292 290 291 292 292 293 293 294 282 279 289 299 285 272 276 272 271 270 273 275 279 281 275 274 310 303 287 287 297 301 307 309 305 287 280 283 282 271 262 266
270 277 281 289 296 296 290 285 285 282 275 271 269 276 293 279 288 272 273 273 276 278 274 277 277 271 264 304 303 305 303 299 301 301 303 302 298 288 286 284 281 273 264 263
264 269 277 282 292 296 292 279 275 273 270 264 271 278 263 271 270 266 280 279 258 262 277 280 269 277 278 278 296 317 324 323 320 326 320 314 305 292 278 278 268 252 266 272
251 259 266 274 278 285 279 266 245 248 258 266 274 273 264 256 246 249 265 269 272 265 262 256 258 286 277 287 298 313 332 340 335 331 332 334 322 292 272 246 234 296 290 278
256 257 261 264 263 266 265 234 220 242 248 246 262 272 266 245 230 233 243 245 242 254 258 257 255 294 292 296 293 302 320 333 335 336 337 340 339 305 273 264 264 294 281 279
256 258 248 253 251 231 221 210 208 237 251 262 265 266 249 220 213 213 226 229 235 246 233 238 261 245 308 306 302 301 304 313 321 321 318 320 322 311 293 282 279 280 282 283
242 239 227 229 229 227 243 257 255 250 258 253 252 241 221 215 206 214 220 225 232 237 233 253 264 293 310 313 309 309 312 318 324 323 315 305 303 300 293 288 286 282 278 281
232 228 224 238 240 239 243 245 252 264 253 248 247 225 224 219 209 207 211 212 221 226 251 272 286 303 303 309 308 309 310 314 314 312 314 310 302 295 293 290 287 284 281 284
231 224 234 245 247 245 245 246 244 247 245 246 237 222 223 220 221 208 206 208 229 265 275 295 302 305 306 307 305 306 304 303 306 300 302 299 298 292 287 287 285 284 283 285
228 234 249 246 247 247 242 242 243 242 234 231 221 221 224 235 225 217 210 236 255 277 273 288 297 303 306 306 305 304 306 305 308 306 302 301 296 293 289 284 280 283 282 282
Height
3087 3084 3082 3079 3078 3075 3074 3072 3067 3071 3071 3071 3066 3069 3071 3075 3077 3078 3078 3080 3079 3079 3080 3080 3081 3082 3082 3081 3080 3080 3080 3078 3072 3071 3070 3069 3068 3067 3065 3064 3063 3060 3058 3051
3094 3089 3087 3085 3083 3083 3080 3078 3076 3076 3076 3074 3074 3076 3077 3079 3080 3081 3081 3082 3083 3083 3083 3084 3083 3082 3082 3081 3081 3080 3079 3076 3072 3069 3071 3068 3066 3065 3064 3062 3059 3056 3056 3050
3097 3095 3092 3088 3087 3086 3086 3083 3082 3081 3081 3080 3080 3081 3082 3082 3083 3083 3084 3085 3085 3085 3085 3084 3084 3083 3082 3081 3080 3079 3078 3075 3074 3071 3068 3066 3063 3062 3062 3060 3058 3054 3051 3047
3099 3098 3096 3093 3090 3088 3088 3086 3087 3087 3087 3086 3085 3086 3086 3086 3086 3087 3087 3087 3087 3087 3086 3085 3084 3084 3083 3082 3081 3079 3077 3073 3070 3068 3064 3061 3057 3057 3057 3055 3055 3052 3048 3046
3103 3099 3098 3096 3094 3091 3090 3089 3089 3090 3089 3089 3089 3089 3089 3089 3090 3089 3089 3089 3088 3087 3086 3086 3084 3083 3081 3080 3078 3076 3075 3071 3067 3061 3059 3056 3051 3050 3050 3050 3049 3048 3046 3044
3104 3102 3098 3096 3095 3093 3091 3089 3089 3090 3090 3091 3092 3091 3090 3091 3090 3090 3089 3088 3087 3087 3086 3084 3082 3081 3079 3078 3076 3074 3072 3069 3066 3058 3055 3052 3047 3042 3040 3043 3044 3044 3043 3043
3106 3102 3100 3097 3094 3093 3092 3091 3090 3089 3088 3088 3089 3089 3089 3089 3088 3090 3088 3087 3086 3086 3084 3083 3081 3079 3077 3074 3074 3073 3071 3069 3067 3059 3054 3053 3043 3042 3041 3041 3040 3039 3039 3039
3108 3103 3100 3097 3095 3093 3091 3090 3089 3088 3086 3085 3085 3086 3086 3086 3086 3086 3085 3085 3086 3084 3083 3081 3079 3077 3075 3072 3071 3069 3069 3069 3066 3061 3055 3047 3038 3037 3038 3039 3038 3037 3036 3036
3105 3104 3100 3097 3094 3092 3090 3089 3088 3086 3085 3084 3083 3082 3082 3082 3081 3082 3082 3081 3080 3079 3078 3076 3073 3073 3072 3071 3069 3068 3066 3066 3066 3061 3059 3049 3038 3037 3036 3035 3033 3032 3031 3032
3102 3101 3100 3096 3093 3091 3089 3088 3086 3085 3083 3082 3081 3081 3079 3079 3078 3077 3077 3076 3075 3074 3073 3072 3071 3068 3068 3065 3061 3057 3056 3057 3057 3057 3056 3043 3037 3036 3036 3037 3037 3031 3030 3030
3099 3097 3096 3094 3092 3090 3088 3086 3084 3082 3080 3079 3077 3076 3076 3075 3075 3074 3074 3074 3070 3069 3068 3067 3065 3064 3063 3059 3056 3055 3056 3055 3051 3048 3048 3043 3038 3037 3038 3036 3032 3030 3028 3027
3095 3093 3091 3090 3090 3087 3085 3083 3081 3078 3077 3076 3073 3072 3072 3070 3070 3069 3067 3068 3068 3067 3066 3065 3063 3061 3058 3056 3052 3051 3053 3051 3049 3048 3040 3036 3035 3035 3033 3030 3029 3027 3025 3023
3092 3089 3088 3085 3083 3083 3082 3080 3077 3075 3072 3070 3068 3067 3066 3065 3065 3064 3063 3063 3063 3062 3062 3061 3059 3056 3053 3050 3046 3044 3042 3043 3037 3035 3030 3031 3029 3027 3026 3024 3023 3022 3020 3019
3087 3085 3084 3083 3080 3077 3076 3076 3073 3071 3068 3065 3065 3062 3061 3059 3059 3058 3058 3058 3058 3058 3057 3055 3052 3049 3046 3043 3041 3034 3035 3032 3026 3018 3020 3019 3019 3017 3015 3013 3012 3012 3012 3012
3083 3080 3078 3077 3077 3073 3070 3070 3069 3068 3068 3061 3059 3058 3057 3055 3053 3052 3052 3052 3052 3051 3050 3048 3046 3044 3041 3036 3032 3021 3024 3022 3019 3010 3012 3007 3005 3008 3007 3007 3007 3005 3005 3006
3078 3076 3073 3070 3071 3070 3066 3064 3064 3062 3061 3058 3054 3051 3048 3047 3046 3045 3045 3046 3046 3045 3043 3041 3038 3038 3038 3030 3020 3017 3016 3012 3010 3006 3004 3000 2998 2996 2997 2998 3000 3001 3001 3000
3071 3070 3069 3065 3062 3063 3063 3062 3059 3057 3055 3053 3048 3043 3041 3040 3040 3040 3040 3039 3039 3039 3036 3032 3032 3031 3030 3019 3009 3010 3006 3005 3004 3001 2997 2994 2992 2989 2989 2988 2989 2989 2992 2994
3065 3063 3062 3061 3058 3055 3056 3056 3053 3052 3050 3049 3045 3039 3038 3037 3036 3036 3036 3036 3034 3032 3030 3027 3025 3024 3020 3007 3004 3003 3000 2998 2996 2994 2990 2987 2984 2983 2982 2982 2981 2980 2981 2984
3055 3055 3054 3053 3053 3051 3049 3048 3046 3044 3047 3041 3035 3037 3036 3031 3031 3030 3030 3029 3028 3025 3022 3020 3019 3012 3009 3007 3004 3001 2999 2996 2993 2989 2985 2981 2977 2974 2973 2973 2973 2974 2975 2977
3046 3046 3045 3042 3046 3043 3043 3039 3037 3033 3030 3026 3025 3027 3028 3030 3028 3027 3029 3024 3022 3015 3015 3013 3007 2999 3000 2999 2999 2998 2995 2992 2989 2986 2982 2976 2973 2971 2970 2969 2968 2969 2971 2972
3037 3035 3036 3036 3036 3036 3034 3032 3030 3026 3019 3013 3014 3017 3017 3019 3021 3023 3026 3022 3020 3016 3012 3009 3001 2994 2995 2994 2994 2994 2992 2989 2986 2983 2978 2973 2970 2969 2968 2967 2967 2968 2968 2967
3030 3027 3027 3027 3027 3025 3025 3018 3019 3019 3013 3004 3006 3009 3011 3011 3014 3017 3017 3016 3015 3012 3010 3006 2994 2992 2992 2991 2990 2990 2988 2986 2984 2980 2978 2974 2969 2967 2966 2965 2965 2964 2963 2964
3019 3019 3015 3014 3015 3010 3000 3000 3004 3006 3003 3000 3001 3001 3005 3006 3010 3010 3010 3009 3007 3004 2999 2990 2985 2985 2985 2985 2984 2983 2982 2981 2979 2976 2973 2971 2968 2966 2964 2963 2961 2960 2959 2959
3002 3003 3000 2998 2992 2981 2979 2987 2992 2997 3000 3000 2998 2996 2997 2999 3003 3004 3001 3000 2999 2994 2987 2979 2980 2980 2979 2978 2978 2977 2975 2972 2971 2971 2969 2969 2967 2964 2963 2960 2958 2956 2955 2953
2985 2982 2981 2974 2971 2971 2976 2980 2985 2989 2991 2993 2996 2993 2994 2993 2994 2993 2991 2989 2983 2978 2974 2976 2976 2976 2974 2973 2972 2970 2968 2967 2965 2964 2964 2963 2962 2961 2959 2957 2955 2953 2952 2949
2964 2959 2964 2960 2961 2963 2967 2973 2979 2981 2983 2985 2988 2988 2986 2986 2983 2977 2973 2971 2967 2967 2969 2970 2971 2971 2970 2968 2966 2965 2963 2961 2960 2957 2956 2956 2956 2954 2952 2951 2950 2948 2948 2946
2942 2943 2950 2952 2951 2957 2964 2966 2970 2972 2972 2974 2976 2976 2978 2971 2967 2960 2957 2954 2961 2964 2964 2963 2963 2964 2964 2962 2960 2958 2956 2954 2953 2951 2949 2948 2947 2946 2946 2944 2942 2941 2940 2939